[[{"header":{"parameterUnit":"m.s-1","parameterCategory":1,"la1":30.2991,"la2":30.254,"lo1":-89.0895,"lo2":-89.0444,"dy":0.0017,"dx":0.0017,"nx":28,"ny":28,"refTime":"2025-07-10T09:00:00:Z","depth":0,"parameterNumber":2,"parameterNumberName":"U-component_of_WINDS"},"data":[0,0,0,0,0,0,0,0,0,0,0,0,0,0,0,0,0,0,0,0,0,0,0,0,0,0,0,0,0,0,0,0,0,0,0,0,0,0,0,0,0,0,0,0,0,0,0,0,0,0,0,0,0,0,0,0,0,0,1.618,1.6181,0,1.6277,1.6278,1.6279,1.6281,1.628,1.6279,1.6277,1.6377,1.6381,1.6385,0,0,0,0,0,0,0,0,0,0,0,0,0,1.5997,1.6,1.618,1.6181,1.6183,1.6277,1.6278,1.6279,1.6281,1.628,1.6278,1.6277,1.6376,1.6381,1.6385,0,0,0,0,0,0,0,0,0,0,0,0,0,1.6083,1.6001,1.618,1.6195,1.6197,1.6276,1.6278,1.628,1.6282,1.628,1.6278,1.6276,1.6375,1.638,1.6386,1.6457,0,0,1.6403,1.6405,0,0,0,0,0,0,0,0,1.6078,1.609,1.6191,1.6194,1.6197,1.6265,1.625,1.6339,1.6282,1.625,1.6277,1.6275,1.6341,1.635,1.6372,1.6461,1.6466,1.6404,1.6407,1.6409,1.6411,0,0,0,0,0,0,0,1.6072,1.6086,1.6218,1.6193,1.6196,1.6196,1.6207,1.6267,1.6304,1.6252,1.6253,1.6264,1.6343,1.6366,1.6374,1.6467,1.6403,1.6408,1.6412,1.6414,1.6618,1.662,0,0,0,0,0,0,1.6063,1.6081,1.6215,1.6221,1.6132,1.6201,1.6213,1.6245,1.6304,1.6311,1.6265,1.6264,1.6358,1.6368,1.6378,1.6463,1.6409,1.6415,1.6418,1.6616,1.6618,1.662,0,0,0,0,0,0,1.6059,1.6075,1.6211,1.6151,1.6168,1.6206,1.6242,1.6248,1.6272,1.6314,1.632,1.6283,1.6357,1.637,1.6437,1.6467,1.6417,1.6422,1.6613,1.6617,1.6619,1.6636,0,0,0,0,0,0,1.6054,1.6074,1.6101,1.6152,1.6172,1.6269,1.6244,1.6251,1.6281,1.628,1.6332,1.6339,1.6356,1.6428,1.6442,1.6474,1.6427,1.6611,1.6615,1.6618,1.6633,1.6639,1.6645,0,0,0,0,0,1.6048,1.6103,1.6103,1.6119,1.6207,1.6271,1.6282,1.6301,1.6284,1.6311,1.6338,1.6337,1.6461,1.6435,1.6451,1.6485,1.6609,1.6614,1.6618,1.663,1.6638,1.6645,0,0,0,0,0,0,1.6056,1.611,1.611,1.6184,1.6222,1.6271,1.6307,1.6308,1.6353,1.635,1.6371,1.6383,1.6449,1.6474,1.6443,1.6555,1.6533,1.6541,1.6537,1.6545,1.655,1.6543,1.6432,0,0,0,0,0,1.6066,1.6113,1.6158,1.6218,1.6238,1.6269,1.6297,1.6308,1.6349,1.6366,1.6397,1.6437,1.6485,1.6516,1.6563,1.6636,1.6647,1.6667,1.6673,1.6678,1.6684,1.6723,1.6732,1.6635,1.6635,1.6635,0,0,1.6088,1.6124,1.6152,1.6221,1.6252,1.63,1.6283,1.6335,1.637,1.6374,1.6438,1.6463,1.6509,1.6579,1.6611,1.6601,1.6713,1.6684,1.6687,1.6691,1.6729,1.6738,1.6746,1.6638,1.6638,1.6637,0,0,1.6153,1.6185,1.6237,1.6269,1.6316,1.6336,1.6349,1.6396,1.6413,1.6478,1.6481,1.6523,1.6606,1.6638,1.6665,1.6739,1.6739,1.6754,1.6784,1.6822,1.683,1.6837,1.6862,1.6871,1.676,1.676,1.676,0,1.6174,1.6246,1.6265,1.6316,1.6346,1.635,1.6403,1.6433,1.6493,1.6513,1.6501,1.6603,1.6635,1.6711,1.6729,1.6752,1.6766,1.6748,1.6827,1.6834,1.6841,1.6865,1.6875,1.6762,1.6761,1.6761,1.6761,0,1.627,1.632,1.6357,1.6414,1.6447,1.65,1.6525,1.6557,1.6565,1.6586,1.6651,1.6688,1.6742,1.6761,1.6769,1.6839,1.6831,1.6823,1.6801,1.6851,1.6874,1.6884,1.6764,1.6763,1.6763,1.6762,0,0,1.6343,1.6408,1.6421,1.6446,1.6498,1.6537,1.6588,1.664,1.6666,1.6707,1.6751,1.6819,1.6812,1.6842,1.6854,1.6888,1.6942,1.6875,1.6877,1.6886,1.7019,1.7024,1.7035,1.6943,1.6945,1.6946,1.7015,0,1.6412,1.6504,1.6521,1.6601,1.6646,1.6651,1.6695,1.6732,1.6752,1.6794,1.6817,1.6865,1.6852,1.687,1.6903,1.6929,1.6969,1.6924,1.6983,1.6985,1.697,1.7047,1.7053,1.7116,1.7024,1.7026,1.7027,0,1.6505,1.6547,1.6631,1.6675,1.6695,1.6735,1.6782,1.6822,1.6863,1.6876,1.6909,1.6917,1.697,1.6945,1.7018,1.6987,1.7012,1.7028,1.7031,1.7037,1.7008,1.7054,1.7137,1.7146,1.7042,1.7041,1.7039,0,1.6548,1.6626,1.6686,1.6707,1.6761,1.6788,1.6812,1.6851,1.688,1.6922,1.6941,1.6988,1.7014,1.7051,1.707,1.7051,1.7142,1.7119,1.7153,1.7152,1.7172,1.717,1.7259,1.7189,1.7189,1.7189,1.7188,0,1.6623,1.6674,1.6706,1.6743,1.6799,1.6818,1.6874,1.6897,1.6931,1.6972,1.6979,1.7017,1.7042,1.7083,1.7099,1.7156,1.7168,1.718,1.7183,1.7179,1.7177,1.7195,1.7191,1.7191,1.7191,1.719,1.719,0,1.668,1.6704,1.677,1.6814,1.6826,1.6866,1.6904,1.6939,1.696,1.7011,1.7024,1.7056,1.7105,1.7128,1.719,1.72,1.7265,1.7266,1.7251,1.7252,1.7284,1.728,1.7387,1.7401,1.7323,1.7323,1.7324,0,1.6726,1.6765,1.6814,1.6841,1.6865,1.691,1.6939,1.6959,1.6989,1.7038,1.7067,1.7116,1.7157,1.7235,1.7263,1.731,1.7311,1.7345,1.7318,1.7312,1.731,1.7307,1.7311,1.735,1.7351,1.7351,1.7352,0,1.6804,1.6814,1.6856,1.6902,1.6937,1.6974,1.7011,1.7033,1.7059,1.7092,1.7142,1.7173,1.7235,1.7283,1.7331,1.7355,1.7358,1.736,1.737,1.7366,1.7355,1.736,1.7263,1.7358,1.7357,1.7357,1.7356,1.7356,1.6857,1.6891,1.693,1.6977,1.7006,1.704,1.7075,1.7099,1.7141,1.7192,1.7201,1.7254,1.7292,1.7356,1.7382,1.7423,1.7415,1.743,1.7434,1.7437,1.7438,1.7349,1.7432,1.7432,1.7432,1.7431,1.7431,0,1.6934,1.6959,1.7002,1.7052,1.7088,1.7087,1.7127,1.7157,1.7204,1.7239,1.7278,1.7335,1.7381,1.7413,1.746,1.7486,1.7488,1.7498,1.7496,1.7501,1.7443,1.7429,1.7495,1.7495,1.7495,1.7495,1.7495,1.7495,1.6979,1.7036,1.705,1.7122,1.7146,1.7198,1.722,1.7251,1.7279,1.7342,1.738,1.74,1.7434,1.7483,1.7525,1.7533,1.755,1.7559,1.7567,1.7512,1.7505,1.7499,1.7486,1.7563,1.7563,1.7622,1.7622,1.7623]},{"header":{"parameterUnit":"m.s-1","parameterCategory":1,"la1":30.2991,"la2":30.254,"lo1":-89.0895,"lo2":-89.0444,"dy":0.0017,"dx":0.0017,"nx":28,"ny":28,"refTime":"2025-07-10T09:00:00:Z","depth":0,"parameterNumber":3,"parameterNumberName":"V-component_of_WINDS"},"data":[0,0,0,0,0,0,0,0,0,0,0,0,0,0,0,0,0,0,0,0,0,0,0,0,0,0,0,0,0,0,0,0,0,0,0,0,0,0,0,0,0,0,0,0,0,0,0,0,0,0,0,0,0,0,0,0,0,0,4.5057,4.5056,0,4.4956,4.4955,4.4954,4.4891,4.4891,4.4891,4.489,4.4781,4.4779,4.4776,0,0,0,0,0,0,0,0,0,0,0,0,0,4.519,4.5188,4.5057,4.5056,4.5055,4.4956,4.4955,4.4953,4.4891,4.4891,4.4891,4.489,4.4782,4.4779,4.4776,0,0,0,0,0,0,0,0,0,0,0,0,0,4.5115,4.5187,4.5057,4.5012,4.5007,4.4957,4.4955,4.4953,4.4891,4.4891,4.489,4.489,4.4783,4.4779,4.4776,4.4761,0,0,4.4764,4.4762,0,0,0,0,0,0,0,0,4.5119,4.511,4.502,4.5015,4.5009,4.4936,4.4962,4.4888,4.4891,4.4935,4.489,4.489,4.4833,4.4825,4.4807,4.4756,4.4751,4.4763,4.4761,4.4759,4.4758,0,0,0,0,0,0,0,4.5125,4.5114,4.5017,4.5019,4.5012,4.4994,4.4983,4.4947,4.4888,4.4931,4.4926,4.4916,4.483,4.4811,4.4804,4.4749,4.4763,4.476,4.4757,4.4756,4.4678,4.4679,0,0,0,0,0,0,4.5138,4.5119,4.502,4.5014,4.5064,4.4993,4.498,4.496,4.4888,4.4877,4.4916,4.4913,4.4817,4.4808,4.48,4.4776,4.4759,4.4756,4.4753,4.4678,4.4678,4.4679,0,0,0,0,0,0,4.5141,4.513,4.5024,4.5065,4.505,4.4991,4.4969,4.4958,4.4939,4.4877,4.4865,4.4908,4.4817,4.4805,4.4771,4.4771,4.4754,4.475,4.4678,4.4678,4.4679,4.4729,0,0,0,0,0,0,4.5145,4.5131,4.5127,4.5066,4.5049,4.4999,4.4969,4.4956,4.4933,4.4928,4.4866,4.4855,4.4815,4.4777,4.4767,4.4765,4.4747,4.4677,4.4678,4.4679,4.4727,4.4731,4.4735,0,0,0,0,0,4.515,4.5144,4.5127,4.5115,4.5042,4.5,4.4989,4.4946,4.4933,4.4927,4.4887,4.4857,4.4773,4.4774,4.4762,4.4759,4.4677,4.4678,4.4678,4.4726,4.4731,4.4735,0,0,0,0,0,0,4.5205,4.5135,4.5115,4.509,4.5051,4.4989,4.498,4.4953,4.4915,4.4912,4.4858,4.4844,4.4814,4.4783,4.4786,4.474,4.4721,4.472,4.4761,4.4766,4.4769,4.4777,4.4744,0,0,0,0,0,4.5215,4.5188,4.5128,4.5111,4.5093,4.504,4.502,4.499,4.4947,4.4929,4.4887,4.4844,4.4808,4.4785,4.4749,4.4723,4.4707,4.4715,4.4719,4.4722,4.4721,4.4702,4.4704,4.4681,4.4681,4.4681,0,0,4.5233,4.5192,4.5178,4.5121,4.5088,4.5059,4.5027,4.4998,4.4976,4.4924,4.4889,4.4857,4.4805,4.4775,4.4759,4.4748,4.4724,4.4723,4.4726,4.4723,4.4703,4.4705,4.4708,4.4681,4.4681,4.4681,0,0,4.5253,4.522,4.5201,4.5169,4.5119,4.5084,4.5079,4.5021,4.4997,4.4962,4.4922,4.4894,4.4833,4.4798,4.4772,4.4777,4.4747,4.4767,4.4786,4.4768,4.477,4.4772,4.4771,4.4772,4.4766,4.4766,4.4766,0,4.5282,4.5239,4.5195,4.5168,4.5143,4.5098,4.5077,4.5047,4.4987,4.4969,4.4959,4.4881,4.4843,4.4802,4.4804,4.4785,4.4776,4.4773,4.4774,4.4775,4.4775,4.4774,4.4775,4.4768,4.4768,4.4768,4.4768,0,4.5276,4.5247,4.5238,4.5182,4.5156,4.5133,4.5083,4.5062,4.5033,4.4999,4.4961,4.4915,4.4867,4.4856,4.4827,4.481,4.4805,4.4785,4.4765,4.4781,4.4779,4.4778,4.4772,4.4771,4.477,4.477,0,0,4.5326,4.5247,4.5244,4.5218,4.5159,4.5135,4.5108,4.5063,4.5045,4.5005,4.4979,4.4929,4.491,4.4881,4.4848,4.4833,4.4837,4.4814,4.4812,4.4818,4.4812,4.4827,4.4827,4.4818,4.4817,4.4817,4.4816,0,4.5335,4.5288,4.5247,4.5213,4.5184,4.514,4.5116,4.5076,4.5043,4.5012,4.4974,4.4938,4.4917,4.4898,4.4882,4.484,4.4835,4.484,4.4791,4.479,4.4804,4.4826,4.4842,4.4843,4.4815,4.4815,4.4815,0,4.5339,4.5302,4.5266,4.5209,4.5196,4.5176,4.513,4.5102,4.5055,4.5031,4.4999,4.4964,4.4932,4.4916,4.4869,4.4874,4.4851,4.4827,4.4826,4.4818,4.4802,4.4817,4.4842,4.4842,4.4814,4.4814,4.4814,0,4.5377,4.5318,4.5289,4.5268,4.5201,4.5188,4.5159,4.5112,4.5087,4.5046,4.5029,4.4985,4.496,4.4926,4.488,4.4873,4.4836,4.4818,4.4814,4.4815,4.4807,4.4808,4.4827,4.4796,4.4796,4.4796,4.4796,0,4.539,4.5369,4.5305,4.5286,4.5261,4.5213,4.5188,4.5155,4.5114,4.5086,4.5045,4.5019,4.4961,4.4928,4.4892,4.4857,4.4846,4.4824,4.4815,4.4827,4.483,4.481,4.4808,4.4795,4.4795,4.4796,4.4796,0,4.5427,4.5384,4.5348,4.5288,4.5272,4.5256,4.5203,4.5183,4.5147,4.5113,4.5102,4.5045,4.5004,4.4955,4.4898,4.4873,4.4841,4.4827,4.4857,4.4851,4.4849,4.485,4.4855,4.4852,4.4825,4.4826,4.4826,0,4.5438,4.5421,4.5359,4.5339,4.5312,4.5279,4.5254,4.5206,4.518,4.5125,4.511,4.5067,4.5029,4.4965,4.4917,4.4872,4.4856,4.4861,4.4849,4.4861,4.4853,4.4855,4.4852,4.4864,4.4864,4.4865,4.4865,0,4.546,4.5439,4.5405,4.5363,4.5334,4.5299,4.5261,4.5246,4.519,4.5163,4.5121,4.5092,4.5034,4.499,4.4939,4.4907,4.4875,4.487,4.4866,4.4878,4.4895,4.4884,4.4864,4.4869,4.4869,4.4869,4.4868,4.4868,4.5482,4.5464,4.5418,4.5381,4.5348,4.5314,4.5291,4.5253,4.5218,4.5168,4.5142,4.51,4.5051,4.498,4.4949,4.4914,4.4903,4.4898,4.4897,4.4896,4.4899,4.4902,4.4905,4.4904,4.4904,4.4904,4.4904,0,4.55,4.5469,4.5435,4.5385,4.5355,4.5331,4.5288,4.5264,4.5228,4.5187,4.5151,4.5102,4.5059,4.5008,4.4961,4.4943,4.4927,4.4932,4.4931,4.4924,4.4912,4.4919,4.4945,4.4945,4.4945,4.4945,4.4945,4.4945,4.5506,4.5474,4.5448,4.5399,4.5366,4.5327,4.5304,4.5271,4.5237,4.5186,4.515,4.5118,4.5072,4.5021,4.498,4.4966,4.4949,4.4958,4.4939,4.4929,4.4925,4.4922,4.4928,4.4955,4.4955,4.4954,4.4954,4.4954]}]]